User: anonymous   Login
Location: Unspecified
(0.0000°N, 0.0000°E)
Time: 03:00:57
(UTC+00:00)
Language:

TBA - TO BE ASSIGNED - Orbit

View from above orbital plane
View from above orbital plane
View from above satellite
View from above satellite

Ground track
Ground track

The orbit is defined by the following mean orbital elements,

1 67631U          26145.15846970 +.00000000 +00000-0 +54665-3 0 00003
2 67631  43.0024  68.3437 0001255 266.4068  93.6640 15.27595223    03
Epoch (UTC): 25 May 2026 03:48:11
Eccentricity: 0.0001255
inclination: 43.0024°
perigee height: 482 km
apogee height: 484 km
right ascension of ascending node: 68.3437°
argument of perigee: 266.4068°
revolutions per day: 15.27595223
mean anomaly at epoch: 93.6640°

The dashed part of the orbit path shows where the satellite is in the earth's shadow,  

DLR